This is the latest recevied weather packets stored in our database for station/object N0QWM. If no packets are shown the sender has not sent any weather packets the latest 10 day(s).
| Time | Temp. | Humidity | Pressure | Rain* | Wind** | Luminosity | Snow |
|---|---|---|---|---|---|---|---|
| 1787842395 | 23.89° C | 95% | 1021.6 hPa | 0 mm | - | 107 W/m² | - |
| 1787842090 | 23.89° C | 96% | 1021.6 hPa | 0 mm | - | 108 W/m² | - |
| 1787841785 | 23.89° C | 97% | 1021.6 hPa | 0 mm | - | 105 W/m² | - |
| 1787841481 | 23.89° C | 98% | 1021.7 hPa | 0 mm | - | 99 W/m² | - |
| 1787841179 | 23.89° C | 99% | 1021.6 hPa | 0 mm | - | 97 W/m² | - |
| 1787840874 | 23.33° C | 99% | 1021.7 hPa | 0 mm | - | 100 W/m² | - |
| 1787840570 | 23.33° C | 99% | 1021.6 hPa | 0 mm | - | 96 W/m² | - |
| 1787840265 | 23.33° C | 99% | 1021.4 hPa | 0 mm | - | 93 W/m² | - |
| 1787839964 | 23.33° C | 99% | 1021.4 hPa | 0 mm | - | 90 W/m² | - |
| 1787839660 | 23.33° C | 99% | 1021.3 hPa | 0 mm | - | 86 W/m² | - |
| 1787839360 | 23.33° C | 99% | 1021.2 hPa | 0 mm | - | 85 W/m² | - |
| 1787839054 | 23.33° C | 99% | 1021.4 hPa | 0 mm | - | 85 W/m² | - |
| 1787838753 | 22.78° C | 99% | 1021.4 hPa | 0 mm | - | 87 W/m² | - |
| 1787838453 | 22.78° C | 99% | 1021.1 hPa | 0 mm | - | 92 W/m² | - |
| 1787838152 | 22.78° C | 99% | 1021 hPa | 0 mm | - | 98 W/m² | - |
| 1787837847 | 22.78° C | 99% | 1021.1 hPa | 0 mm | - | 100 W/m² | - |
| 1787837542 | 22.78° C | 99% | 1021.3 hPa | 0 mm | - | 95 W/m² | - |
| 1787837241 | 22.78° C | 99% | 1021.2 hPa | 0 mm | - | 93 W/m² | - |
| 1787836940 | 22.78° C | 99% | 1021.2 hPa | 0 mm | - | 97 W/m² | - |
| 1787836636 | 22.22° C | 99% | 1021 hPa | 0 mm | - | 96 W/m² | - |
| 1787836335 | 22.22° C | 99% | 1021.2 hPa | 0 mm | - | 90 W/m² | - |
| 1787836031 | 22.22° C | 99% | 1021.4 hPa | 0 mm | - | 93 W/m² | - |
| 1787835727 | 22.22° C | 99% | 1021.3 hPa | 0 mm | - | 83 W/m² | - |
| 1787835421 | 22.22° C | 99% | 1021.2 hPa | 0 mm | - | 79 W/m² | - |
| 1787835116 | 22.22° C | 99% | 1021 hPa | 0 mm | - | 84 W/m² | - |
* Rain latest hour (hover to see other rain measurements)
** Current wind speed in m/s (hover to see current wind gust speed)